Wenatchee, WA

7:45 AM PDT on March 29, 2017 (GMT -0700)
Pangborn Memorial

Weather History for KEAT - April, 2014

Change the Weather History Date:

Thursday, April 3, 2014

  Actual Average Record
Temperature  
Mean Temperature 42 °F 49 °F  
Max Temperature 54 °F 60 °F 73 °F (1977)
Min Temperature 29 °F 39 °F 27 °F (1975)
Degree Days  
Heating Degree Days 23 16  
Month to date heating degree days 69 48  
Since 1 July heating degree days 6211 5160  
Cooling Degree Days 0 0  
Month to date cooling degree days 0 0  
Year to date cooling degree days 0 2  
Growing Degree Days 1 (Base 50)    
Moisture  
Dew Point 27 °F    
Average Humidity 0    
Maximum Humidity 0    
Minimum Humidity 0    
Precipitation  
Precipitation 0.01 in 0.02 in 0.36 in (1998)
Month to date precipitation 0.01 0.05  
Year to date precipitation 5.23 2.56  
Snow  
Snow 0.00 in - - ()
Month to date snowfall 0.0  
Snow Depth 0.00 in    
Sea Level Pressure  
Sea Level Pressure 29.91 in    
Wind  
Wind Speed 7 mph (South)    
Max Wind Speed 14 mph    
Max Gust Speed 0 mph    
Visibility 10 miles    
Events      
T = Trace of Precipitation, MM = Missing Value Source: NWS Daily Summary

Daily Weather History Graph

Daily Weather History Graph

Search for Another Location

Airport or City:

Trip Planner

Search our weather history database for the weather conditions in past years. The results will help you decide how hot, cold, wet, or windy it might be!

Date:

Astronomy

Apr. 03, 2014 Rise Set
Actual Time 6:35 AM PDT 7:33 PM PDT
Civil Twilight 6:04 AM PDT 8:04 PM PDT
Nautical Twilight 5:26 AM PDT 8:42 PM PDT
Astronomical Twilight 4:47 AM PDT 9:21 PM PDT
Moon 8:54 AM PDT (4/3) No Moon Set
Length of Visible Light 14h 00m
Length of Day
12h 58m
Waxing Crescent, 18% of the Moon is Illuminated
Apr 3
Waxing Crescent
Apr 7
First Quarter
Apr 15
Full
Apr 22
Last Quarter
Apr 28
New

Hourly Weather History & Observations

Time (PDT) Temp. Windchill Dew Point Humidity Pressure Visibility Wind Dir Wind Speed Gust Speed Precip Events Conditions
12:55 AM 48.9 °F - 24.1 °F 38% 29.95 in 10.0 mi WNW 10.4 mph - N/A   Clear
1:55 AM 44.1 °F 40.1 °F 25.0 °F 47% 29.95 in 10.0 mi North 6.9 mph - N/A   Clear
2:55 AM 46.0 °F - 25.0 °F 44% 29.95 in 10.0 mi Calm Calm - N/A   Clear
3:55 AM 44.1 °F 40.1 °F 26.1 °F 49% 29.95 in 10.0 mi West 6.9 mph - N/A   Clear
4:55 AM 44.1 °F 41.5 °F 26.1 °F 49% 29.95 in 10.0 mi NW 4.6 mph - N/A   Clear
5:55 AM 43.0 °F 41.3 °F 25.0 °F 49% 29.96 in 10.0 mi NNW 3.5 mph - N/A   Clear
6:55 AM 42.1 °F 37.7 °F 26.1 °F 53% 29.96 in 10.0 mi NW 6.9 mph - N/A   Clear
7:55 AM 43.0 °F - 27.0 °F 53% 29.97 in 10.0 mi Calm Calm - N/A   Clear
8:55 AM 45.0 °F 43.5 °F 27.0 °F 49% 29.97 in 10.0 mi WSW 3.5 mph - N/A   Clear
9:55 AM 46.9 °F - 27.0 °F 46% 29.97 in 10.0 mi West 3.5 mph - N/A   Clear
10:55 AM 48.9 °F - 27.0 °F 43% 29.96 in 10.0 mi Calm Calm - N/A   Clear
11:55 AM 52.0 °F - 26.1 °F 37% 29.95 in 10.0 mi SE 9.2 mph - N/A   Clear
12:55 PM 55.0 °F - 27.0 °F 34% 29.93 in 10.0 mi ESE 9.2 mph - N/A   Clear
1:55 PM 57.0 °F - 26.1 °F 30% 29.91 in 10.0 mi ESE 10.4 mph - N/A   Clear
2:55 PM 60.1 °F - 26.1 °F 27% 29.88 in 10.0 mi SE 12.7 mph - N/A   Clear
3:55 PM 60.1 °F - 25.0 °F 26% 29.86 in 10.0 mi South 9.2 mph - N/A   Mostly Cloudy
4:55 PM 55.0 °F - 34.0 °F 45% 29.88 in 10.0 mi WSW 9.2 mph - 0.00 in   Overcast
5:55 PM 55.9 °F - 32.0 °F 40% 29.86 in 10.0 mi Calm Calm - N/A   Overcast
6:55 PM 55.9 °F - 28.9 °F 36% 29.85 in 10.0 mi South 11.5 mph - N/A   Scattered Clouds
8:55 PM 54.0 °F - 30.0 °F 40% 29.84 in 10.0 mi SSE 13.8 mph - N/A   Scattered Clouds
9:55 PM 54.0 °F - 28.9 °F 38% 29.83 in 10.0 mi SE 11.5 mph - N/A   Overcast
10:55 PM 53.1 °F - 28.9 °F 40% 29.83 in 10.0 mi SSE 8.1 mph - N/A   Clear
11:55 PM 51.1 °F - 30.0 °F 44% 29.83 in 10.0 mi East 3.5 mph - N/A   Partly Cloudy